TimeMST,TemperatureF,Dew PointF,Humidity,Sea Level PressureIn,VisibilityMPH,Wind Direction,Wind SpeedMPH,Gust SpeedMPH,PrecipitationIn,Events,Conditions,WindDirDegrees,DateUTC
12:57 AM,60.1,57.0,90,30.13,10.0,Calm,Calm,-,N/A,,Clear,0,2013-07-26 07:57:00
1:57 AM,57.9,55.9,93,30.13,10.0,West,3.5,-,N/A,,Clear,280,2013-07-26 08:57:00
2:57 AM,60.1,55.9,86,30.12,10.0,WSW,3.5,-,N/A,,Clear,240,2013-07-26 09:57:00
3:57 AM,57.0,55.9,96,30.12,10.0,SW,4.6,-,N/A,,Clear,230,2013-07-26 10:57:00
4:57 AM,62.1,55.9,80,30.11,10.0,SW,8.1,-,N/A,,Scattered Clouds,230,2013-07-26 11:57:00
5:57 AM,62.1,55.9,80,30.13,10.0,SSW,15.0,-,N/A,,Overcast,200,2013-07-26 12:57:00
6:57 AM,61.0,59.0,93,30.16,5.0,SSW,16.1,-,0.01,Rain,Light Rain,210,2013-07-26 13:57:00
7:57 AM,61.0,59.0,93,30.20,10.0,SW,10.4,-,0.04,Rain,Light Rain,220,2013-07-26 14:57:00
8:57 AM,63.0,57.9,84,30.18,10.0,WSW,3.5,-,0.00,,Clear,240,2013-07-26 15:57:00
9:57 AM,71.1,57.9,63,30.14,10.0,Calm,Calm,-,N/A,,Partly Cloudy,0,2013-07-26 16:57:00
10:57 AM,70.0,59.0,68,30.15,10.0,SSW,5.8,-,N/A,,Clear,200,2013-07-26 17:57:00
11:57 AM,70.0,62.1,76,30.14,10.0,SSW,8.1,-,N/A,,Clear,210,2013-07-26 18:57:00
12:57 PM,73.9,57.0,55,30.12,10.0,West,5.8,-,N/A,,Clear,280,2013-07-26 19:57:00
1:57 PM,70.0,62.1,76,30.13,10.0,SW,13.8,-,N/A,,Clear,220,2013-07-26 20:57:00
2:57 PM,73.0,61.0,66,30.09,10.0,Variable,6.9,-,N/A,,Clear,0,2013-07-26 21:57:00
3:57 PM,77.0,55.0,47,30.07,10.0,WSW,9.2,-,N/A,,Clear,240,2013-07-26 22:57:00
4:57 PM,72.0,61.0,68,30.08,10.0,SSW,13.8,-,N/A,,Clear,200,2013-07-26 23:57:00
5:57 PM,70.0,61.0,73,30.10,10.0,South,5.8,-,N/A,,Partly Cloudy,190,2013-07-27 00:57:00
6:22 PM,62.6,53.6,72,30.44,10.0,ENE,11.5,32.2,N/A,,Overcast,60,2013-07-27 01:22:00
6:37 PM,59.0,55.4,88,30.47,1.8,NE,12.7,21.9,0.14,Rain,Heavy Rain,50,2013-07-27 01:37:00
6:46 PM,57.2,55.4,94,30.48,2.0,NE,10.4,19.6,0.28,Rain-Thunderstorm,Heavy Thunderstorms and Rain,50,2013-07-27 01:46:00
6:55 PM,57.2,55.4,94,30.48,3.0,ENE,10.4,17.3,0.31,Rain-Thunderstorm,Thunderstorms and Rain,70,2013-07-27 01:55:00
6:57 PM,57.9,57.0,97,30.22,4.0,ENE,10.4,17.3,0.32,Rain-Thunderstorm,Thunderstorms and Rain,70,2013-07-27 01:57:00
7:10 PM,59.0,57.2,94,30.48,10.0,East,9.2,-,0.01,Rain-Thunderstorm,Light Thunderstorms and Rain,80,2013-07-27 02:10:00
7:50 PM,57.2,55.4,94,30.46,10.0,ENE,10.4,19.6,0.01,Thunderstorm,Thunderstorm,70,2013-07-27 02:50:00
7:57 PM,57.9,55.9,93,30.21,10.0,ENE,10.4,-,0.01,,Overcast,60,2013-07-27 02:57:00
8:57 PM,57.9,55.9,93,30.19,10.0,NE,8.1,-,N/A,,Mostly Cloudy,40,2013-07-27 03:57:00
9:57 PM,57.0,55.0,93,30.14,10.0,Calm,Calm,-,N/A,,Overcast,0,2013-07-27 04:57:00
10:57 PM,57.0,55.0,93,30.13,10.0,Calm,Calm,-,N/A,,Overcast,0,2013-07-27 05:57:00
11:57 PM,57.0,55.0,93,30.13,10.0,Calm,Calm,-,N/A,,Partly Cloudy,0,2013-07-27 06:57:00